Lid_Strength_Index
3 3 3 3 3 3 3 3 3 3 3 2 1 1 1 2 2 4 7 4 4 2 3 5 6 3 3 9 7 5 8 10 9 9 7 5 6 4 3 4 4 4 4 3 2
3 3 3 3 3 3 3 3 3 3 3 3 2 1 1 1 3 6 3 1 1 1 5 7 9 4 5 7 9 9 9 9 6 6 6 5 6 5 5 5 5 5 3 2 2
3 3 3 3 3 3 3 3 3 3 3 3 3 2 1 2 5 6 1 1 1 1 3 7 6 5 7 8 9 9 10 7 6 5 5 6 6 4 6 6 5 5 4 3 3
2 3 3 2 2 2 3 3 3 3 3 3 3 3 2 4 11 3 0 1 1 2 4 7 8 7 9 10 7 12 9 8 7 6 6 6 5 6 5 5 3 3 3 4 4
2 2 2 2 2 2 2 2 3 4 3 3 3 3 4 7 7 2 0 2 3 3 5 8 9 9 10 8 9 9 8 9 7 7 6 5 6 6 5 4 3 3 3 4 4
1 2 2 2 1 1 2 2 3 3 3 3 3 3 7 11 4 3 2 3 3 4 5 7 9 8 10 8 9 9 9 9 9 8 7 7 6 6 5 3 4 4 4 4 4
0 1 0 0 -0 -0 -0 1 1 2 3 3 3 4 8 9 4 3 4 4 3 3 6 5 7 10 10 10 7 9 11 10 9 9 9 7 8 8 5 4 4 4 4 4 3
-1 -1 -1 -2 -1 -2 -2 -1 -1 0 1 2 3 5 10 5 4 4 4 4 2 2 3 3 5 9 10 9 9 10 10 13 9 8 9 8 11 8 4 5 5 5 4 4 3
-2 -2 -2 -2 -2 -2 -2 -2 -2 -1 -1 0 4 7 11 5 7 5 4 6 5 3 3 2 6 10 10 12 14 12 15 14 11 8 10 9 11 8 6 5 5 5 4 4 4
-2 -2 -2 -2 -2 -2 -2 -2 -2 -1 -1 -0 3 9 8 10 6 5 4 5 6 5 5 5 6 11 12 14 17 14 14 12 13 10 8 11 11 9 8 8 6 5 4 4 4
-2 -2 -2 -2 -2 -2 -2 -0 3 4 2 5 6 7 8 5 4 6 4 5 6 7 10 7 11 13 13 12 12 11 13 13 11 10 11 12 12 10 8 9 8 7 5 4 4
-2 -2 -1 -1 -2 -1 -1 3 3 2 7 3 4 5 4 5 9 7 5 8 8 11 9 10 13 9 9 10 11 12 14 14 12 13 12 12 12 10 9 9 8 8 7 5 4
-2 -2 -1 -1 -1 -1 1 2 -1 0 8 5 4 6 6 5 8 9 7 7 9 10 10 12 11 8 10 10 12 13 14 13 14 13 13 13 13 11 10 9 8 8 7 7 6
-2 -2 -1 -1 1 1 2 0 -1 -0 11 9 7 5 4 4 8 5 4 7 9 11 9 11 8 9 10 12 11 13 11 12 14 15 17 14 17 12 10 11 10 10 9 8 7
-2 -1 -1 -0 2 3 2 -1 -1 2 18 8 7 2 3 7 6 6 3 6 10 10 10 12 10 10 12 12 10 12 9 11 12 14 14 15 17 15 11 12 11 10 10 9 8
-1 -2 -1 0 -0 1 -1 -1 1 12 18 11 8 8 8 7 7 5 5 4 5 9 10 11 7 8 10 8 9 8 9 11 12 13 19 15 15 15 13 13 11 10 11 10 9
-2 -2 -1 -1 3 -1 -1 3 12 16 9 11 11 9 9 9 9 8 8 9 11 15 14 12 12 8 7 9 8 9 11 17 17 18 19 14 15 16 12 12 12 12 11 11 10
-2 -1 -0 -0 -1 -1 1 8 16 13 12 8 8 8 11 9 9 9 9 11 8 11 14 16 17 12 7 9 11 11 11 15 19 19 18 14 17 15 11 10 11 12 11 11 10
-1 0 0 -0 -1 -0 5 13 13 12 9 10 9 11 11 10 11 10 10 11 11 11 15 16 16 9 8 7 8 10 12 10 13 15 16 15 14 12 12 12 11 12 11 11 10
1 2 2 -0 -0 2 8 11 11 8 8 8 12 10 13 12 12 12 12 10 11 10 10 12 16 12 9 7 7 9 8 13 12 19 19 16 15 15 13 12 12 11 10 9 9
2 5 1 -1 -0 5 11 11 10 6 6 9 10 11 11 12 11 12 13 11 10 10 9 11 13 14 11 12 12 11 11 11 11 13 16 17 16 11 12 11 11 10 10 9 9
2 8 0 -1 8 7 9 10 8 7 7 8 8 9 10 10 11 12 13 11 8 9 11 10 13 15 14 10 7 8 10 10 14 15 13 14 14 9 10 9 9 9 9 9 8
6 6 0 2 10 9 9 9 8 8 8 9 9 8 7 10 12 11 10 8 8 8 11 11 13 17 16 13 10 11 9 9 9 10 14 15 15 10 10 9 9 9 8 8 7
4 9 7 5 7 10 10 10 10 6 8 7 8 8 9 10 9 11 10 8 7 8 8 9 12 15 17 16 13 15 13 11 10 15 14 13 13 12 11 10 8 8 8 8 7
5 9 10 9 9 11 10 10 10 10 7 7 8 8 10 12 11 11 10 9 8 7 8 10 14 13 13 13 13 13 13 13 13 12 14 11 11 10 9 9 9 8 8 8 8
7 8 9 10 10 11 11 11 11 9 9 9 10 8 8 11 10 12 11 10 11 9 9 9 14 13 15 13 13 14 12 12 12 12 12 12 12 7 8 9 9 9 8 9 9
5 6 6 10 10 10 9 10 10 9 8 7 8 9 9 8 7 7 8 8 8 10 10 11 12 14 16 14 14 16 14 12 12 10 10 13 10 8 9 9 9 8 8 9 9